JUPITER 3 (ECHOSTAR 24)

Last updated on Mon Oct 14 2024 00:02:42 GMT+0000 (Coordinated Universal Time)

1 57479U 23108A 24287.20261873 -.00000151 00000+0 00000+0 0 9994 2 57479 0.0111 219.9326 0001204 348.2172 151.8725 1.00271256 4516
UTC large
Height (km)
Speed (km/s)
/
Latitude / Longitude
Inclination (degrees)
Orbital Period (minutes)
Azimuth
Elevation
Range (km)
Doppler Factor

Next 0 passes for location: London (51.5072 / 0.1276)

Sorry there are no passes over London.